GFSSGP_prec_cloud_132.txt.gz
Cloud_Cover
100 100 100 100 100 100 100 100 100 100 100 100 100 94 100 100 31 32 38 22 12 11 2 0 0 2 45 94 23 90 96 6 9 5 1 10 94 11 9 29 100 100 100 100 100 100 48 44 70
100 100 100 100 100 100 100 100 100 100 100 80 100 100 100 100 96 100 91 40 16 16 11 0 0 2 5 6 5 5 5 5 18 8 0 16 13 6 74 64 18 32 98 100 99 100 38 83 27
97 100 100 100 100 100 100 100 100 100 100 100 100 100 100 100 81 98 100 66 24 14 9 1 0 0 4 5 29 5 5 23 1 24 10 0 6 64 12 4 1 3 100 46 100 100 15 0 0
100 100 100 100 100 100 100 100 100 100 100 100 100 100 100 98 40 73 100 43 7 12 0 0 0 0 0 1 5 0 0 0 0 6 1 0 7 96 1 4 0 43 100 100 100 100 62 0 0
100 80 85 99 100 100 100 100 100 100 99 100 37 100 100 100 25 100 73 12 9 21 3 0 0 0 0 0 5 5 0 0 8 0 13 3 0 1 2 20 0 21 100 68 84 2 0 0 5
100 100 99 70 99 100 100 100 100 100 100 100 53 82 100 100 99 100 31 9 7 23 22 0 15 0 0 0 0 5 0 36 0 0 7 0 1 9 12 47 26 0 1 2 1 0 2 5 5
100 100 100 100 100 100 100 100 100 100 100 100 93 61 100 100 100 85 13 11 12 22 29 14 0 0 4 0 0 0 4 19 0 0 0 0 0 84 100 99 9 1 2 0 0 5 16 90 100
100 100 100 100 100 99 100 100 100 100 100 100 99 66 100 100 100 35 32 24 69 36 20 16 0 0 2 4 0 0 90 40 0 0 0 0 0 84 98 55 0 3 24 32 43 20 100 100 100
100 100 100 100 100 61 100 95 83 100 100 100 100 88 64 100 93 93 93 91 92 83 42 22 8 1 0 1 21 4 0 0 0 1 0 0 0 0 0 3 0 2 5 66 100 99 100 28 5
100 99 100 100 100 96 87 93 8 100 82 100 100 96 67 90 100 100 100 100 100 100 100 31 10 5 2 2 5 5 3 2 0 0 2 5 0 2 1 1 5 15 57 96 26 10 5 5 0
100 100 100 100 100 93 52 60 5 95 46 100 100 100 100 100 100 100 99 100 56 74 100 93 12 5 3 1 13 10 37 45 26 0 5 6 5 4 6 15 76 100 42 22 5 5 2 0 0
100 100 100 98 99 88 75 63 9 58 5 86 99 98 100 100 100 100 100 100 100 95 88 93 40 13 5 21 13 12 14 3 76 100 83 34 42 6 5 74 43 100 100 100 18 5 3 6 0
100 100 100 84 86 28 88 88 79 96 8 62 100 100 100 100 100 100 100 100 100 79 99 100 17 16 45 17 20 13 8 6 5 13 60 100 100 57 42 87 92 100 100 44 5 39 26 5 5
100 100 100 90 91 100 80 87 83 72 91 79 94 100 100 100 100 94 100 100 100 81 65 100 72 41 14 26 31 13 8 3 5 5 6 6 79 100 100 100 97 100 83 100 6 16 97 71 51
100 100 100 91 100 54 97 100 99 76 74 97 100 100 100 100 100 100 64 100 100 100 95 100 100 95 98 100 85 37 8 5 4 5 4 10 29 61 78 100 100 100 100 73 98 94 5 14 6
90 99 100 95 100 97 67 95 100 79 24 79 98 100 100 100 100 47 6 54 100 100 100 100 99 97 97 100 84 12 12 9 5 9 9 4 3 48 84 81 34 23 42 20 54 61 41 29 100
30 92 100 100 100 100 76 100 100 79 77 56 71 83 96 100 99 91 5 5 94 100 100 100 97 33 82 100 6 6 4 5 5 10 6 5 4 5 11 4 4 5 37 35 34 11 8 13 5
11 96 100 100 100 100 100 100 89 7 90 84 39 6 13 19 15 5 24 5 5 19 100 100 100 99 100 70 75 36 14 5 5 14 11 5 4 4 1 5 18 25 5 5 5 5 24 89 91
2 0 100 100 100 100 100 100 100 17 6 99 88 70 92 100 5 26 51 5 5 4 11 100 84 58 27 12 54 99 64 19 6 5 5 5 6 8 5 5 55 23 10 14 5 59 57 73 10
42 1 30 100 100 77 100 100 100 66 5 27 54 84 100 95 5 56 10 5 5 5 5 5 21 6 38 78 35 8 21 12 6 58 5 5 5 3 5 33 28 52 12 13 8 5 6 5 31
94 87 24 90 100 5 72 90 100 100 54 56 32 50 36 99 58 53 5 22 5 5 5 5 5 26 5 12 22 88 39 18 18 5 5 7 5 5 77 47 33 95 74 22 36 5 6 10 59
100 83 100 76 100 5 78 53 28 66 95 66 26 19 51 71 14 5 32 80 72 100 5 5 27 44 74 74 46 84 100 96 16 5 5 5 20 91 99 100 65 67 40 42 5 5 5 9 21
100 100 100 100 100 100 99 93 20 5 83 100 99 65 72 65 46 36 74 99 8 33 6 8 86 68 22 99 92 77 95 32 5 85 45 83 98 99 100 62 42 100 99 5 5 22 29 30 15
100 100 100 100 99 96 5 51 87 5 95 100 98 98 80 100 86 23 13 5 28 41 71 96 74 100 100 95 42 94 100 99 84 86 100 99 70 91 100 98 72 53 46 22 7 2 7 24 31
100 100 100 100 100 10 1 4 0 34 53 100 100 100 61 100 100 83 98 93 37 89 57 100 97 94 79 100 100 100 95 100 100 100 97 99 53 38 8 66 14 6 5 4 19 31 34 58 50
100 96 93 100 49 2 19 20 2 100 5 100 100 100 100 98 23 44 90 89 98 92 100 91 100 72 70 90 100 82 50 93 80 14 10 10 5 5 5 5 5 7 5 34 34 56 59 94 95
99 100 45 99 97 30 3 0 0 23 99 3 100 100 100 100 98 23 7 74 100 98 100 100 83 66 100 43 90 80 48 33 22 8 61 100 66 82 29 34 17 5 7 12 46 86 100 100 99
97 89 100 100 57 71 5 2 0 0 100 34 79 100 100 100 100 100 100 100 84 89 89 75 78 61 100 98 76 56 60 100 78 89 100 96 100 100 100 99 26 58 91 86 66 92 97 100 100
100 99 100 100 32 5 2 0 0 0 43 100 7 63 100 100 100 100 100 100 100 100 100 100 100 100 100 100 94 100 100 100 100 100 100 100 100 100 100 100 100 100 100 98 100 100 100 100 100
14 68 100 100 91 5 5 13 0 0 4 100 100 40 95 100 100 100 100 100 100 100 100 100 100 100 100 96 95 100 100 100 100 100 100 100 100 100 100 100 100 100 100 100 100 100 100 100 100

GFSSGP_prec_cloud_138.txt.gz
Cloud_Cover
100 98 32 100 100 100 100 94 48 100 100 100 59 100 100 100 78 44 57 6 0 8 12 5 5 5 5 5 5 5 5 74 5 57 100 100 83 4 5 80 99 99 89 4 71 0 0 0 82
100 100 24 62 100 100 100 100 31 91 29 96 100 100 100 100 100 57 57 40 10 9 32 53 3 5 5 5 5 5 0 23 15 100 100 100 87 2 87 100 100 100 96 79 17 1 62 100 67
100 100 100 96 100 100 100 100 22 36 5 26 100 100 100 100 92 100 70 29 35 43 72 30 0 5 5 5 2 2 0 0 13 88 100 100 62 99 100 100 100 100 100 7 0 12 73 100 43
100 100 100 100 100 100 100 100 100 64 47 8 100 90 100 96 100 76 65 47 56 76 57 40 0 5 5 5 5 0 0 0 15 99 100 100 100 100 100 100 100 100 100 36 87 4 20 42 0
98 99 100 99 100 100 100 100 100 70 55 17 100 80 50 92 100 64 76 99 81 84 14 26 0 4 5 5 5 17 0 6 11 36 100 100 100 100 100 100 100 100 99 44 5 0 0 5 12
96 100 92 99 95 100 100 100 100 100 100 100 82 100 22 100 100 100 100 100 41 23 22 36 34 0 2 2 0 0 0 63 100 6 30 100 100 92 100 100 100 100 100 85 43 5 2 5 63
99 99 98 95 98 100 97 100 100 100 100 100 100 100 100 100 43 100 100 60 13 4 30 21 42 16 9 0 0 0 0 0 9 0 0 3 100 35 100 100 100 100 98 63 5 18 6 1 0
68 97 53 66 100 100 100 100 100 100 100 100 100 100 100 100 100 100 100 99 20 6 6 6 62 58 42 4 6 0 0 1 4 0 0 0 59 97 100 100 98 43 5 3 8 56 7 5 5
5 41 79 100 100 100 98 100 100 100 100 100 100 99 98 56 100 100 99 100 46 23 2 4 20 29 51 40 27 21 6 1 2 0 0 0 1 11 82 46 19 5 7 78 89 90 69 97 46
1 4 100 98 100 100 100 99 100 95 99 76 83 100 100 96 100 100 100 100 99 17 34 55 60 7 14 13 0 30 7 2 27 6 14 20 3 26 93 11 14 12 19 88 100 10 100 100 100
0 0 100 83 93 100 100 95 60 100 100 72 34 34 100 100 100 100 100 84 100 39 6 63 11 5 5 5 6 33 43 34 60 43 17 36 17 10 6 6 64 100 100 58 100 100 100 100 99
0 0 45 100 100 100 100 100 100 79 100 73 18 11 100 100 100 100 100 100 88 34 5 28 8 4 5 10 12 6 22 34 31 5 0 8 2 3 2 78 72 97 100 55 96 100 100 58 5
5 0 0 61 100 91 100 100 100 100 97 92 94 64 100 100 100 97 92 100 81 94 26 15 100 100 88 60 5 63 10 5 3 6 0 0 0 0 4 4 4 2 3 5 0 8 5 5 0
5 5 0 3 98 100 100 100 100 100 99 100 78 98 77 93 100 100 100 100 100 100 100 86 98 73 46 8 58 85 10 14 29 5 0 0 0 0 0 4 0 0 0 0 2 0 1 0 2
5 6 4 4 91 100 100 95 100 100 99 97 54 99 57 43 47 100 100 100 87 44 100 100 99 100 48 99 100 94 86 100 100 41 5 0 4 5 0 4 0 3 5 0 0 2 5 5 3
100 38 8 3 21 100 69 84 100 100 98 72 41 71 93 57 56 10 25 6 75 31 100 100 100 100 100 48 100 100 100 100 100 81 21 12 9 2 5 0 2 1 5 3 5 5 5 5 12
100 100 66 69 31 93 69 77 100 100 79 99 69 82 67 100 94 11 63 23 41 99 100 100 98 47 92 100 100 100 100 100 96 97 65 84 6 5 5 4 5 5 4 5 5 6 5 21 31
98 99 96 22 5 82 83 41 100 100 100 100 25 43 100 99 100 92 95 6 62 99 100 100 100 100 32 24 56 98 63 47 100 100 99 5 4 4 5 5 5 5 5 7 49 52 12 26 97
100 100 100 100 100 55 63 31 100 100 100 100 91 5 66 100 98 24 95 100 92 84 100 100 100 100 97 41 37 24 64 100 100 100 5 5 5 5 5 5 5 5 5 26 67 5 26 87 100
100 100 100 91 100 57 14 28 100 5 100 100 91 84 98 71 87 78 100 100 100 100 87 79 100 100 99 47 19 17 100 100 81 46 6 5 26 80 6 5 5 6 5 5 5 5 76 91 100
100 100 93 98 100 77 60 9 100 47 2 98 100 100 100 89 94 9 36 100 100 100 51 77 60 97 100 59 24 71 56 86 96 18 5 34 93 11 5 5 7 13 5 16 30 87 26 34 100
100 100 100 100 79 86 17 29 99 91 0 5 89 100 100 100 21 34 8 26 96 54 10 31 26 90 64 100 91 99 100 99 31 13 5 62 100 44 5 8 5 6 52 91 52 80 43 46 79
100 100 100 100 98 83 90 100 5 84 0 5 100 100 100 94 9 5 21 94 100 98 100 73 16 91 100 98 93 99 100 100 33 32 13 65 67 52 78 90 5 12 96 83 62 72 62 30 60
100 100 100 100 100 100 15 83 4 76 68 66 52 100 100 98 96 76 22 57 94 100 100 100 100 93 25 88 100 100 100 100 100 100 100 92 61 100 100 22 50 25 100 15 31 43 41 41 49
100 100 100 100 100 38 41 75 5 100 42 100 100 98 100 99 45 100 100 99 100 100 100 90 88 95 76 95 66 100 100 100 100 100 80 94 88 99 63 99 96 100 75 73 46 13 37 48 41
21 100 100 100 100 1 49 16 0 100 100 100 100 64 100 100 100 100 97 100 100 99 72 99 84 99 100 100 66 100 100 100 100 99 100 90 96 90 100 100 99 99 48 6 13 50 60 67 98
12 100 100 100 63 23 37 1 0 11 100 100 100 100 100 100 100 100 88 40 18 72 96 99 100 100 80 78 88 91 62 98 100 100 78 59 100 96 100 99 78 33 21 28 46 99 100 100 100
8 68 100 100 100 91 3 0 0 0 76 100 100 100 100 100 100 100 100 100 22 26 100 24 56 49 87 99 94 62 23 66 94 70 100 100 100 96 94 98 69 14 24 42 69 100 100 100 100
99 100 100 100 100 77 10 0 0 4 5 100 100 100 100 90 100 100 100 100 100 100 100 100 94 76 25 44 29 11 26 9 85 78 100 48 10 39 29 18 20 22 32 50 57 94 100 100 100
5 93 90 100 100 95 42 12 0 0 6 88 100 100 100 85 94 100 100 100 100 100 100 100 100 100 100 96 5 5 5 37 23 99 18 31 34 44 34 30 18 8 17 36 92 76 100 100 100

GFSSGP_prec_cloud_141.txt.gz
Cloud_Cover
5 5 100 100 100 65 100 100 100 91 5 7 100 67 98 100 100 91 19 4 20 22 19 0 5 82 24 5 5 5 3 98 100 100 100 100 19 5 100 28 76 6 50 4 2 0 100 100 100
32 13 61 100 100 56 100 100 100 100 23 33 99 15 100 100 100 57 90 5 21 19 46 35 5 5 5 5 5 3 28 27 22 97 100 100 96 18 100 9 100 100 100 39 52 99 51 100 99
100 57 76 100 100 83 79 100 100 100 48 70 11 14 26 100 100 100 100 3 33 20 99 52 1 2 5 5 5 0 24 1 73 100 100 100 100 100 100 37 100 100 100 100 85 40 100 100 94
98 99 73 100 100 99 98 100 100 100 100 36 5 5 38 79 100 100 42 5 38 100 100 40 0 4 5 5 4 0 0 1 100 97 100 100 100 100 100 100 100 84 68 100 99 44 41 27 1
31 79 63 85 100 100 100 100 100 100 100 100 32 5 37 64 28 100 74 34 93 100 99 8 0 4 5 5 5 9 0 0 1 100 100 100 100 100 100 100 100 53 52 82 91 78 10 1 7
5 9 55 91 100 100 95 100 100 100 100 100 91 5 5 6 60 100 100 92 99 100 50 74 34 0 4 5 5 24 4 0 0 22 100 100 100 100 100 100 95 72 29 82 87 6 6 6 5
0 33 3 69 100 100 100 100 100 100 100 100 100 100 97 89 52 76 100 100 79 33 15 94 16 8 20 0 0 0 0 0 11 0 3 100 100 100 100 100 100 100 100 9 4 47 8 99 62
0 64 11 60 100 100 100 100 100 100 100 100 100 100 92 100 100 100 96 100 100 28 5 37 74 77 38 13 7 0 0 0 54 4 0 8 100 100 100 100 100 100 5 6 5 100 5 78 100
0 5 28 16 40 84 100 100 100 100 100 97 100 100 99 96 100 81 100 100 100 99 13 15 9 9 96 100 37 54 31 13 1 0 0 0 18 55 63 99 58 5 42 60 16 100 100 100 100
0 0 3 2 5 51 65 81 99 100 100 100 100 100 100 100 100 97 99 100 84 100 22 8 17 34 13 32 19 29 23 23 26 35 0 4 21 41 100 34 5 70 100 100 100 100 100 100 100
0 0 0 2 2 17 38 81 100 100 100 100 85 67 100 100 100 94 94 75 7 100 100 100 8 94 5 14 5 6 12 46 100 100 47 20 5 3 19 4 3 3 14 5 14 17 11 88 100
0 0 0 0 1 1 49 34 84 100 100 100 74 76 87 51 32 100 61 71 46 60 20 100 6 15 45 12 5 6 5 30 97 85 9 73 4 0 6 0 0 0 5 8 0 0 0 1 0
2 2 2 0 0 0 0 92 23 79 100 100 100 87 90 98 51 100 100 94 11 10 74 81 5 12 19 71 53 46 43 72 7 13 11 8 8 0 0 0 0 0 4 1 0 0 2 3 5
15 0 2 0 0 0 0 54 8 84 100 100 99 59 70 9 98 54 100 100 88 76 7 46 5 7 95 100 100 68 47 100 72 22 48 5 5 1 5 5 0 0 0 0 0 0 5 2 1
10 5 0 0 0 0 0 0 3 100 26 95 100 83 89 10 77 100 100 88 87 67 88 100 100 76 64 100 40 10 28 100 100 99 100 100 11 0 5 5 5 0 0 5 2 0 5 5 6
85 21 17 1 2 0 0 0 94 100 7 100 100 92 70 6 39 68 98 100 100 100 96 99 66 94 96 40 100 88 27 51 100 100 100 100 80 7 100 40 7 2 5 4 5 5 5 5 28
100 98 74 5 77 69 8 0 50 100 10 94 100 100 64 20 75 100 100 37 100 100 100 79 36 28 88 100 100 100 100 94 96 56 99 100 100 88 28 91 46 5 5 3 5 5 5 30 22
100 100 72 26 25 32 12 19 4 100 38 60 100 100 64 99 93 83 39 100 98 72 93 50 100 100 100 100 98 86 24 44 85 70 52 86 100 13 90 100 58 5 5 5 5 5 5 5 24
100 87 58 7 100 95 79 32 0 100 2 23 100 100 66 76 96 50 91 100 100 58 50 43 7 18 100 100 100 100 70 47 80 100 71 31 15 17 100 98 82 14 5 5 5 5 18 81 77
100 51 72 81 100 86 55 10 6 93 4 20 100 100 100 97 96 50 100 72 75 100 100 80 93 78 99 100 100 100 100 100 100 100 34 5 18 100 100 48 64 63 5 5 5 28 75 100 100
71 54 85 60 100 97 99 4 3 16 38 13 100 62 100 100 100 42 40 100 100 100 100 100 48 9 24 100 98 100 100 100 99 38 6 22 97 100 72 16 5 5 6 50 98 20 97 88 58
98 15 90 94 100 100 100 61 2 39 5 0 100 99 100 100 100 90 23 70 100 100 100 48 100 99 58 97 100 100 100 100 100 89 63 29 51 45 66 23 73 100 14 79 55 92 100 40 90
11 91 98 100 100 100 100 100 0 3 5 59 100 100 100 100 100 100 100 92 100 59 76 69 84 100 100 100 100 100 100 100 52 30 48 49 44 77 100 100 100 100 93 100 100 95 100 100 34
97 100 100 97 100 100 90 95 2 3 56 100 100 100 100 100 100 100 100 100 100 88 76 100 100 99 90 99 90 78 95 86 25 52 66 61 63 100 100 100 100 100 89 77 68 97 100 89 48
37 100 100 100 100 100 44 100 6 14 35 98 100 100 100 100 100 100 100 100 100 96 92 100 82 27 68 96 72 71 100 98 70 31 6 77 64 83 100 90 100 100 100 86 98 98 100 59 95
98 100 100 100 82 100 98 78 0 0 100 100 100 100 100 100 100 100 100 100 100 99 86 100 9 5 78 62 100 100 100 97 99 73 79 100 53 75 90 66 82 100 100 100 100 100 89 96 99
99 100 66 100 99 100 100 36 0 0 86 100 100 100 100 100 100 100 100 100 100 100 100 100 73 10 13 99 100 93 100 100 100 93 92 100 66 94 100 71 98 88 100 100 98 89 92 100 100
100 100 100 100 100 100 96 74 0 0 4 100 100 100 100 100 100 100 100 100 100 100 100 95 100 100 100 78 86 100 100 100 100 58 5 40 78 81 68 86 77 99 100 71 30 77 100 100 100
100 100 93 72 100 89 18 0 0 5 2 44 100 100 100 100 100 100 100 100 100 100 100 100 100 100 100 100 100 100 100 93 77 75 95 50 80 60 74 79 55 18 10 34 82 100 100 100 100
100 100 100 100 100 97 20 1 0 8 92 96 100 100 100 100 100 100 100 100 100 100 100 100 100 100 100 100 88 100 100 100 100 100 100 99 59 74 100 79 13 16 32 40 100 100 100 100 100

GFSSGP_prec_cloud_147.txt.gz
Cloud_Cover
5 5 4 2 3 76 99 97 100 60 100 100 100 100 86 20 93 100 100 11 0 0 0 4 5 44 80 85 1 0 50 94 74 89 100 45 10 79 100 3 11 98 90 69 100 100 81 0 1
4 5 5 5 2 5 69 100 100 90 18 97 100 100 65 18 66 100 100 81 1 0 0 1 5 5 5 5 0 0 2 0 5 50 100 24 25 85 95 11 5 52 100 100 100 14 0 2 2
5 4 5 5 5 5 12 100 99 95 5 5 100 100 79 99 14 98 100 97 10 0 1 5 5 5 5 0 0 0 0 22 46 94 100 100 54 20 100 4 88 100 32 87 17 0 6 2 10
0 4 5 5 5 4 26 11 100 5 5 6 100 100 100 100 100 57 99 100 77 2 0 0 2 1 5 0 0 0 0 98 100 100 99 100 14 55 74 0 66 98 75 58 50 5 0 1 4
0 0 0 0 2 0 14 8 78 24 8 18 82 100 100 100 100 100 24 100 96 76 4 0 0 0 0 0 0 0 0 37 62 100 100 100 73 90 100 0 28 100 100 93 5 12 3 0 2
0 0 0 0 0 4 0 3 5 46 8 5 12 37 97 100 100 100 16 83 96 97 97 0 35 0 5 0 0 0 0 0 10 100 100 100 40 84 97 1 1 100 30 1 0 5 16 100 92
0 0 0 0 2 29 0 0 0 4 7 5 17 47 10 100 100 100 100 76 100 98 100 3 6 6 6 3 5 0 0 0 0 7 99 100 97 91 100 26 0 2 2 5 3 4 36 52 43
0 0 0 0 0 4 6 5 3 0 0 5 5 37 5 40 89 100 100 100 100 100 78 81 100 54 3 0 5 3 0 0 0 0 12 100 100 85 89 99 0 4 5 5 88 51 6 5 5
0 0 0 0 0 5 42 4 4 0 0 5 5 82 32 5 41 100 100 100 100 100 90 100 36 17 6 0 24 0 0 0 0 0 0 3 64 87 35 2 5 5 4 4 0 0 0 3 0
0 0 0 0 0 3 97 5 0 0 0 1 5 63 99 39 21 53 100 100 100 100 100 100 94 97 52 5 34 6 0 0 0 0 0 0 0 0 0 0 0 0 5 0 0 0 0 0 0
0 0 0 0 0 0 38 50 3 0 0 0 0 34 51 32 37 29 94 91 100 100 100 94 95 100 100 100 96 26 18 13 3 4 0 0 0 0 0 13 22 3 15 0 0 0 2 0 0
0 0 0 0 0 0 0 0 2 0 0 0 0 5 45 6 99 65 13 82 99 100 100 100 100 71 83 99 100 100 5 2 0 4 5 5 0 0 2 17 14 5 6 22 5 5 5 5 5
0 0 0 0 0 0 0 0 0 0 0 0 0 0 25 64 10 98 99 100 12 98 100 100 100 79 61 26 70 100 98 3 0 1 16 4 5 3 2 4 11 11 43 21 14 16 5 5 5
0 0 0 0 0 0 0 0 0 0 0 0 0 0 3 76 50 25 100 100 52 92 100 92 100 82 99 99 84 100 94 5 5 74 100 4 3 41 100 5 35 82 8 25 64 64 46 91 86
0 0 0 0 0 0 0 0 0 0 0 0 0 0 0 18 100 75 32 100 84 81 99 100 100 100 100 43 100 100 92 20 21 84 86 6 5 59 100 100 95 64 60 10 27 41 62 100 100
0 0 0 0 0 0 0 0 0 0 0 0 0 0 0 0 8 100 75 100 100 100 100 99 100 100 100 100 93 100 100 89 59 88 86 6 58 88 34 82 70 45 79 24 100 100 85 48 100
44 23 3 0 0 0 0 0 0 0 0 0 0 0 0 0 0 51 34 19 100 100 100 88 72 100 100 100 100 100 70 100 100 100 81 71 100 100 100 51 51 99 40 62 10 93 31 59 100
64 58 5 1 2 2 0 0 1 0 0 0 0 0 0 0 0 1 7 5 58 100 100 90 100 100 100 100 100 100 100 75 87 48 100 100 100 100 76 6 26 50 36 100 99 97 18 99 100
96 19 93 15 4 93 96 5 5 5 3 0 0 0 0 0 0 0 1 3 5 100 100 100 100 100 84 100 100 100 100 100 100 95 94 100 100 100 96 67 66 100 100 10 45 68 14 100 100
74 92 23 35 33 100 100 100 5 1 0 0 0 0 0 0 0 0 0 0 1 98 100 100 100 100 99 55 92 100 100 100 100 97 97 20 5 57 100 100 100 100 100 100 62 65 81 100 100
29 58 31 34 98 92 100 60 2 1 0 0 0 0 0 0 0 0 0 0 0 85 100 100 100 100 100 99 43 55 100 100 100 100 82 68 42 100 100 100 100 100 100 100 99 100 100 100 100
60 4 58 38 99 66 91 77 0 0 0 0 0 0 0 0 0 0 0 0 0 2 92 100 100 100 100 100 95 100 85 100 100 100 98 44 68 100 100 100 100 82 100 100 97 97 100 100 100
16 5 5 71 82 100 100 100 0 0 0 0 0 0 0 0 0 0 0 0 0 0 12 100 100 100 100 100 100 83 100 100 100 100 100 100 54 11 22 13 68 94 98 60 56 56 100 100 100
5 27 20 82 52 100 8 81 0 0 0 0 0 0 0 0 0 2 46 4 0 0 0 73 100 100 100 100 100 100 100 100 100 100 100 100 100 100 100 100 98 100 97 100 92 72 100 100 100
5 8 84 100 100 68 0 90 6 0 0 0 0 0 0 0 0 1 100 89 5 5 0 5 100 100 100 100 100 100 100 100 100 94 100 100 81 100 100 100 100 100 100 98 100 100 100 100 100
5 8 85 84 83 9 5 70 0 0 0 0 0 0 0 0 0 34 100 100 56 95 3 5 100 100 100 100 100 100 100 100 100 100 100 100 100 100 100 100 73 100 100 100 100 100 100 100 100
6 5 11 100 89 99 8 4 0 0 0 0 0 0 0 0 2 100 100 100 99 100 98 47 100 100 100 100 100 100 100 100 100 100 97 64 71 100 100 96 28 80 100 100 100 99 100 100 100
2 3 9 85 100 94 20 4 0 0 0 4 1 5 0 0 27 100 100 100 100 100 100 81 100 100 100 100 100 100 100 100 100 97 76 68 89 100 100 100 100 66 89 100 100 100 100 100 100
89 31 84 47 96 73 91 24 0 0 0 1 37 47 7 15 74 100 100 100 100 100 100 100 100 100 100 100 100 100 100 100 100 100 100 69 100 100 90 100 100 96 78 99 79 100 100 100 100
18 22 99 100 40 75 64 16 3 0 1 78 100 100 100 71 7 100 100 100 100 100 100 100 100 100 100 100 99 64 100 100 100 100 100 100 100 100 70 100 100 100 86 87 72 82 100 100 100